PAY1192 KVLD-KMEM

Flight info

Callsign PAY1192
Flight time N/A
Altitude 31000
Route WASER VANZE3
Aircraft B752/M-SDE2E3FGHIJ3J4J7RWXY/LB1

Departure

Time N/A
Airport Valdosta Regional Airport (KVLD)

Arrival

Time 2026-05-03 21:18
Airport Memphis International Airport (KMEM)
Time Latitude Longitude Altitude Speed Heading
2026-05-03 20:15 32.20700 -85.18764 31134 ft 407 kts 303°
2026-05-03 20:15 32.24401 -85.23823 31132 ft 407 kts 303°
2026-05-03 20:16 32.28090 -85.28874 31132 ft 406 kts 303°
2026-05-03 20:16 32.31786 -85.33943 31134 ft 407 kts 303°
2026-05-03 20:17 32.35466 -85.39016 31135 ft 407 kts 303°
2026-05-03 20:17 32.39157 -85.44107 31133 ft 408 kts 303°
2026-05-03 20:18 32.42863 -85.49193 31127 ft 408 kts 303°
2026-05-03 20:18 32.46571 -85.54297 31128 ft 408 kts 303°
2026-05-03 20:19 32.50271 -85.59405 31134 ft 409 kts 303°
2026-05-03 20:19 32.53956 -85.64536 31139 ft 409 kts 303°
2026-05-03 20:20 32.57667 -85.69692 31157 ft 408 kts 303°
2026-05-03 20:20 32.61365 -85.74812 31158 ft 409 kts 303°
2026-05-03 20:21 32.65071 -85.79936 31156 ft 409 kts 303°
2026-05-03 20:21 32.68770 -85.85063 31156 ft 409 kts 303°
2026-05-03 20:22 32.72458 -85.90193 31157 ft 409 kts 303°
2026-05-03 20:22 32.76149 -85.95337 31157 ft 409 kts 303°
2026-05-03 20:23 32.79837 -86.00486 31157 ft 408 kts 303°
2026-05-03 20:23 32.83520 -86.05636 31161 ft 410 kts 303°
2026-05-03 20:24 32.87213 -86.10808 31163 ft 411 kts 303°
2026-05-03 20:24 32.90912 -86.15996 31162 ft 412 kts 303°
2026-05-03 20:25 32.94624 -86.21208 31164 ft 413 kts 303°
2026-05-03 20:25 32.98345 -86.26439 31171 ft 414 kts 303°
2026-05-03 20:26 33.02054 -86.31689 31174 ft 414 kts 303°
2026-05-03 20:26 33.05756 -86.36940 31176 ft 414 kts 304°
2026-05-03 20:27 33.09487 -86.42175 31179 ft 414 kts 304°
2026-05-03 20:27 33.13253 -86.47488 31175 ft 415 kts 304°
2026-05-03 20:28 33.16976 -86.52757 31175 ft 415 kts 304°
2026-05-03 20:28 33.20688 -86.58042 31174 ft 415 kts 304°
2026-05-03 20:29 33.24399 -86.63355 31173 ft 416 kts 304°
2026-05-03 20:29 33.28160 -86.68670 31186 ft 416 kts 304°
2026-05-03 20:30 33.31887 -86.73963 31187 ft 417 kts 304°
2026-05-03 20:30 33.35612 -86.79271 31187 ft 417 kts 304°
2026-05-03 20:31 33.39336 -86.84590 31184 ft 417 kts 304°
2026-05-03 20:31 33.43059 -86.89916 31184 ft 418 kts 304°
2026-05-03 20:32 33.46773 -86.95260 31185 ft 418 kts 304°
2026-05-03 20:32 33.50500 -87.00625 31186 ft 419 kts 304°
2026-05-03 20:33 33.54215 -87.05994 31186 ft 419 kts 304°
2026-05-03 20:33 33.57949 -87.11383 31185 ft 420 kts 304°
2026-05-03 20:34 33.61690 -87.16756 31183 ft 420 kts 304°
2026-05-03 20:34 33.65439 -87.22133 31180 ft 421 kts 304°
2026-05-03 20:35 33.69186 -87.27537 31178 ft 421 kts 304°
2026-05-03 20:35 33.72932 -87.32955 31178 ft 422 kts 304°
2026-05-03 20:36 33.76677 -87.38385 31178 ft 422 kts 304°
2026-05-03 20:36 33.80419 -87.43818 31178 ft 423 kts 305°
2026-05-03 20:37 33.84165 -87.49267 31180 ft 423 kts 305°
2026-05-03 20:37 33.87911 -87.54736 31179 ft 424 kts 305°
2026-05-03 20:38 33.91661 -87.60231 31179 ft 425 kts 305°
2026-05-03 20:38 33.95441 -87.65736 31181 ft 426 kts 305°
2026-05-03 20:39 33.99239 -87.71285 31189 ft 426 kts 305°
2026-05-03 20:39 34.02994 -87.76810 31186 ft 426 kts 305°
2026-05-03 20:40 34.06757 -87.82341 31180 ft 427 kts 305°
2026-05-03 20:40 34.10536 -87.87877 31179 ft 427 kts 305°
2026-05-03 20:41 34.14328 -87.93454 31178 ft 428 kts 305°
2026-05-03 20:41 34.18099 -87.99012 31172 ft 428 kts 305°
2026-05-03 20:42 34.21517 -88.04667 31163 ft 400 kts 298°
2026-05-03 20:42 34.24364 -88.10285 31169 ft 393 kts 297°
2026-05-03 20:43 34.27221 -88.15989 31169 ft 397 kts 297°
2026-05-03 20:43 34.30058 -88.21680 31167 ft 395 kts 297°
2026-05-03 20:44 34.32892 -88.27386 31163 ft 396 kts 297°
2026-05-03 20:44 34.35720 -88.33092 31151 ft 396 kts 297°
2026-05-03 20:45 34.38572 -88.38859 30628 ft 405 kts 298°
2026-05-03 20:45 34.40014 -88.41775 30173 ft 403 kts 298°
2026-05-03 20:45 34.41440 -88.44663 29733 ft 400 kts 298°
2026-05-03 20:45 34.42863 -88.47547 29302 ft 401 kts 298°
2026-05-03 20:46 34.44297 -88.50457 28813 ft 403 kts 298°
2026-05-03 20:46 34.45728 -88.53364 28228 ft 404 kts 298°
2026-05-03 20:46 34.47167 -88.56289 27655 ft 406 kts 298°
2026-05-03 20:46 34.48608 -88.59218 27102 ft 403 kts 298°
2026-05-03 20:47 34.50027 -88.62105 26560 ft 396 kts 299°
2026-05-03 20:47 34.51424 -88.64951 26014 ft 392 kts 299°
2026-05-03 20:47 34.52827 -88.67812 25494 ft 390 kts 298°
2026-05-03 20:47 34.54225 -88.70666 24975 ft 388 kts 298°
2026-05-03 20:48 34.55593 -88.73461 24485 ft 385 kts 299°
2026-05-03 20:48 34.56954 -88.76241 24027 ft 383 kts 299°
2026-05-03 20:48 34.58307 -88.79009 23576 ft 381 kts 299°
2026-05-03 20:48 34.59653 -88.81765 23131 ft 379 kts 299°
2026-05-03 20:49 34.60994 -88.84512 22697 ft 377 kts 299°
2026-05-03 20:49 34.62321 -88.87232 22261 ft 375 kts 299°
2026-05-03 20:49 34.63435 -88.90060 21805 ft 371 kts 288°
2026-05-03 20:49 34.64160 -88.93037 21378 ft 367 kts 285°
2026-05-03 20:50 34.64857 -88.96006 20965 ft 365 kts 285°
2026-05-03 20:50 34.65532 -88.98968 20556 ft 364 kts 285°
2026-05-03 20:50 34.66194 -89.01927 20149 ft 361 kts 285°
2026-05-03 20:50 34.66842 -89.04857 19757 ft 359 kts 285°
2026-05-03 20:51 34.67483 -89.07769 19418 ft 354 kts 285°
2026-05-03 20:51 34.68132 -89.10612 19046 ft 346 kts 286°
2026-05-03 20:51 34.68782 -89.13394 18617 ft 341 kts 286°
2026-05-03 20:51 34.69424 -89.16155 18186 ft 339 kts 286°
2026-05-03 20:52 34.70059 -89.18900 17716 ft 339 kts 286°
2026-05-03 20:52 34.70694 -89.21640 17198 ft 335 kts 286°
2026-05-03 20:52 34.71316 -89.24333 16768 ft 329 kts 286°
2026-05-03 20:52 34.71920 -89.26972 16378 ft 321 kts 286°
2026-05-03 20:53 34.72497 -89.29565 15960 ft 315 kts 286°
2026-05-03 20:53 34.73060 -89.32103 15553 ft 309 kts 286°
2026-05-03 20:53 34.73625 -89.34636 14693 ft 319 kts 286°
2026-05-03 20:53 34.74199 -89.37217 14126 ft 308 kts 286°
2026-05-03 20:54 34.74754 -89.39718 13559 ft 307 kts 286°
2026-05-03 20:54 34.75843 -89.44640 12883 ft 289 kts 287°
2026-05-03 20:54 34.76347 -89.46921 12885 ft 270 kts 287°
2026-05-03 20:55 34.76840 -89.49059 12755 ft 259 kts 292°
2026-05-03 20:55 34.77692 -89.51042 11916 ft 275 kts 303°
2026-05-03 20:55 34.78706 -89.53028 11332 ft 277 kts 302°
2026-05-03 20:55 34.79695 -89.54997 11141 ft 265 kts 302°
2026-05-03 20:56 34.80631 -89.56852 11135 ft 251 kts 302°
2026-05-03 20:56 34.81571 -89.58713 11157 ft 264 kts 302°
2026-05-03 20:56 34.82520 -89.60595 11139 ft 257 kts 302°
2026-05-03 20:56 34.83449 -89.62437 11143 ft 255 kts 302°
2026-05-03 20:57 34.84384 -89.64289 11152 ft 258 kts 302°
2026-05-03 20:57 34.85334 -89.66176 11154 ft 259 kts 302°
2026-05-03 20:57 34.86280 -89.68052 11101 ft 260 kts 302°
2026-05-03 20:57 34.87233 -89.69942 10798 ft 262 kts 302°
2026-05-03 20:58 34.88173 -89.71807 10558 ft 252 kts 302°
2026-05-03 20:58 34.89060 -89.73571 10423 ft 240 kts 302°
2026-05-03 20:58 34.89934 -89.75308 10059 ft 241 kts 302°
2026-05-03 20:58 34.90798 -89.77026 9780 ft 236 kts 302°
2026-05-03 20:59 34.91646 -89.78713 9453 ft 229 kts 302°
2026-05-03 20:59 34.92459 -89.80331 9227 ft 220 kts 301°
2026-05-03 20:59 34.93260 -89.81925 9014 ft 224 kts 301°
2026-05-03 20:59 34.94088 -89.83572 8701 ft 229 kts 301°
2026-05-03 21:00 34.95119 -89.85011 8388 ft 227 kts 326°
2026-05-03 21:00 34.96084 -89.85491 8309 ft 223 kts 347°
2026-05-03 21:00 34.98053 -89.85667 8307 ft 200 kts 353°
2026-05-03 21:00 34.99421 -89.85754 8291 ft 194 kts 354°
2026-05-03 21:01 35.00804 -89.85820 8243 ft 205 kts 354°
2026-05-03 21:01 35.02256 -89.85872 7926 ft 209 kts 355°
2026-05-03 21:01 35.03699 -89.85911 7629 ft 206 kts 355°
2026-05-03 21:01 35.05120 -89.85947 7361 ft 202 kts 355°
2026-05-03 21:02 35.06527 -89.85981 7110 ft 198 kts 355°
2026-05-03 21:02 35.07894 -89.86011 6860 ft 193 kts 355°
2026-05-03 21:02 35.09235 -89.86043 6619 ft 193 kts 355°
2026-05-03 21:02 35.10604 -89.86080 6388 ft 197 kts 355°
2026-05-03 21:03 35.12002 -89.86124 6140 ft 198 kts 355°
2026-05-03 21:03 35.13388 -89.86169 5888 ft 197 kts 355°
2026-05-03 21:03 35.14784 -89.86218 5634 ft 196 kts 355°
2026-05-03 21:03 35.16151 -89.86269 5387 ft 197 kts 355°
2026-05-03 21:04 35.17526 -89.86321 5138 ft 197 kts 355°
2026-05-03 21:04 35.18904 -89.86378 4889 ft 196 kts 355°
2026-05-03 21:04 35.20272 -89.86435 4642 ft 196 kts 355°
2026-05-03 21:04 35.21635 -89.86493 4393 ft 195 kts 355°
2026-05-03 21:05 35.22995 -89.86552 4145 ft 195 kts 355°
2026-05-03 21:05 35.24352 -89.86614 3898 ft 195 kts 355°
2026-05-03 21:05 35.25704 -89.86677 3650 ft 194 kts 355°
2026-05-03 21:05 35.27051 -89.86742 3404 ft 193 kts 355°
2026-05-03 21:06 35.28396 -89.86809 3172 ft 193 kts 355°
2026-05-03 21:06 35.29738 -89.86877 3001 ft 190 kts 355°
2026-05-03 21:06 35.31051 -89.86942 3007 ft 190 kts 355°
2026-05-03 21:06 35.32400 -89.87009 3010 ft 195 kts 355°
2026-05-03 21:07 35.33760 -89.87076 2988 ft 194 kts 355°
2026-05-03 21:07 35.35102 -89.87141 3002 ft 186 kts 355°
2026-05-03 21:07 35.36385 -89.87201 2980 ft 183 kts 355°
2026-05-03 21:07 35.37662 -89.87260 2986 ft 184 kts 355°
2026-05-03 21:08 35.38950 -89.87321 2988 ft 184 kts 355°
2026-05-03 21:08 35.40235 -89.87409 2981 ft 183 kts 347°
2026-05-03 21:08 35.41301 -89.88138 2990 ft 175 kts 304°
2026-05-03 21:08 35.41643 -89.89516 3002 ft 171 kts 261°
2026-05-03 21:09 35.41100 -89.90757 2997 ft 168 kts 218°
2026-05-03 21:09 35.39997 -89.91200 3008 ft 171 kts 185°
2026-05-03 21:09 35.38799 -89.91256 2990 ft 172 kts 185°
2026-05-03 21:09 35.37611 -89.91325 2984 ft 170 kts 185°
2026-05-03 21:10 35.36429 -89.91419 2988 ft 170 kts 189°
2026-05-03 21:10 35.35265 -89.91717 2988 ft 169 kts 198°
2026-05-03 21:10 35.34151 -89.92192 2988 ft 169 kts 203°
2026-05-03 21:10 35.33073 -89.92768 2987 ft 169 kts 206°
2026-05-03 21:11 35.32026 -89.93412 2985 ft 168 kts 209°
2026-05-03 21:11 35.30998 -89.94106 2979 ft 167 kts 211°
2026-05-03 21:11 35.29988 -89.94824 2970 ft 168 kts 212°
2026-05-03 21:11 35.28984 -89.95561 2964 ft 168 kts 213°
2026-05-03 21:12 35.27991 -89.96309 2962 ft 166 kts 213°
2026-05-03 21:12 35.27044 -89.97032 2978 ft 156 kts 214°
2026-05-03 21:12 35.26055 -89.97570 2948 ft 158 kts 191°
2026-05-03 21:12 35.24944 -89.97638 2972 ft 162 kts 185°
2026-05-03 21:13 35.23819 -89.97669 2958 ft 160 kts 185°
2026-05-03 21:13 35.22705 -89.97676 2961 ft 160 kts 184°
2026-05-03 21:13 35.21581 -89.97663 2961 ft 161 kts 183°
2026-05-03 21:13 35.20462 -89.97639 2957 ft 160 kts 182°
2026-05-03 21:14 35.19341 -89.97608 2962 ft 160 kts 182°
2026-05-03 21:14 35.18217 -89.97572 2960 ft 162 kts 182°
2026-05-03 21:14 35.17099 -89.97531 2955 ft 158 kts 182°
2026-05-03 21:14 35.16023 -89.97489 2975 ft 147 kts 182°
2026-05-03 21:15 35.15026 -89.97449 2940 ft 139 kts 182°
2026-05-03 21:15 35.14052 -89.97425 2959 ft 140 kts 185°
2026-05-03 21:15 35.13072 -89.97438 2955 ft 140 kts 184°
2026-05-03 21:15 35.12082 -89.97419 2898 ft 144 kts 181°
2026-05-03 21:16 35.11072 -89.97354 2680 ft 145 kts 181°
2026-05-03 21:16 35.10062 -89.97278 2243 ft 145 kts 183°
2026-05-03 21:16 35.09078 -89.97237 1776 ft 142 kts 187°
2026-05-03 21:16 35.08114 -89.97261 1374 ft 136 kts 186°
2026-05-03 21:17 35.07180 -89.97288 1008 ft 132 kts 185°
2026-05-03 21:17 35.06583 -89.97275 822 ft 125 kts 183°
2026-05-03 21:17 35.05424 -89.97264 519 ft 130 kts 188°
2026-05-03 21:17 35.04461 -89.97285 351 ft 144 kts 181°
2026-05-03 21:18 35.03524 -89.97270 310 ft 104 kts 181°
2026-05-03 21:18 35.03116 -89.97276 316 ft 50 kts 179°
2026-05-03 21:18 35.02771 -89.97265 320 ft 42 kts 178°
2026-05-03 21:18 35.02583 -89.97170 319 ft 20 kts 115°
2026-05-03 21:19 35.02650 -89.97029 313 ft 23 kts
2026-05-03 21:19 35.02822 -89.97044 312 ft 26 kts 345°
2026-05-03 21:19 35.03015 -89.97074 311 ft 28 kts
2026-05-03 21:19 35.03218 -89.97084 309 ft 30 kts 359°
2026-05-03 21:20 35.03435 -89.97088 306 ft 31 kts 359°
2026-05-03 21:20 35.03666 -89.97091 302 ft 34 kts 360°
2026-05-03 21:20 35.03907 -89.97091 297 ft 34 kts 357°
2026-05-03 21:20 35.04140 -89.97098 293 ft 32 kts 359°
2026-05-03 21:21 35.04377 -89.97083 288 ft 35 kts
2026-05-03 21:21 35.04630 -89.97064 283 ft 37 kts 359°
2026-05-03 21:21 35.04891 -89.97066 280 ft 33 kts
2026-05-03 21:21 35.05127 -89.97045 277 ft 35 kts
2026-05-03 21:22 35.05369 -89.97000 274 ft 35 kts
2026-05-03 21:22 35.05601 -89.96961 271 ft 27 kts 12°
2026-05-03 21:22 35.05771 -89.96942 269 ft 21 kts 333°
2026-05-03 21:22 35.05824 -89.97100 268 ft 18 kts 283°
2026-05-03 21:23 35.05890 -89.97188 267 ft 15 kts 328°
2026-05-03 21:23 35.05963 -89.97254 266 ft 9 kts 322°
2026-05-03 21:23 35.06019 -89.97273 266 ft 5 kts 359°
2026-05-03 21:23 35.06026 -89.97274 266 ft 0 kts 359°